Theta_e
356 353 353 357 350 350 351 350 348 351 349 348 347 348 350 350 349 348 344 357 356 356 358 359 358 358 358 359 357 355 354 353 351 350 348 347 345 345 344 344 343 342 342
361 361 354 357 358 356 356 352 350 351 349 346 343 344 346 345 347 350 348 349 354 352 354 356 357 356 356 355 357 357 354 352 352 350 348 347 345 344 345 344 343 342 342
357 359 355 354 348 348 344 347 349 342 339 337 336 336 336 338 342 347 348 350 350 352 351 351 353 354 354 354 355 355 355 353 352 350 348 347 345 344 344 344 344 343 343
357 357 350 344 346 342 340 340 339 337 335 332 331 332 333 336 337 339 341 346 349 349 351 351 350 351 353 354 354 354 353 353 352 350 348 347 346 344 343 344 343 343 344
349 346 344 343 342 341 340 338 337 335 332 334 333 331 334 336 334 333 335 337 340 350 347 349 350 350 350 352 354 354 352 353 352 350 349 348 347 345 344 343 343 343 344
344 343 344 343 341 339 337 339 337 337 336 334 331 329 332 334 335 335 336 339 337 337 343 346 345 346 349 350 351 353 353 351 354 351 349 347 346 345 344 343 342 344 341
342 344 341 340 339 337 340 338 336 332 330 334 328 327 327 331 333 335 335 334 338 340 340 341 345 348 348 348 349 349 349 349 350 354 350 346 346 345 344 343 343 342 336
340 340 340 339 340 336 336 337 338 330 327 329 323 323 318 320 327 333 334 333 332 335 335 343 343 341 346 346 345 345 344 341 347 348 348 346 346 345 344 343 342 338 332
337 338 337 337 338 336 330 331 329 329 326 328 332 324 314 314 321 326 330 331 333 334 334 335 342 340 341 344 348 346 346 344 339 346 346 347 347 346 344 343 338 334 328
334 334 334 334 335 333 331 330 327 326 325 320 324 327 327 324 318 317 323 328 333 332 334 334 334 339 342 341 340 347 342 342 344 343 342 344 346 347 345 341 336 331 327
334 330 331 332 332 331 329 328 328 328 326 323 321 322 323 323 323 318 314 320 326 328 330 330 331 335 341 338 332 339 334 335 338 338 339 343 346 343 345 337 332 328 325
332 333 330 331 331 330 328 326 326 326 324 325 324 323 322 320 320 320 316 318 318 325 329 330 331 336 335 330 336 332 331 331 331 333 335 338 342 343 340 336 330 323 321
329 330 330 329 326 328 326 325 324 323 323 323 323 323 324 324 325 324 320 318 319 324 325 330 331 329 328 328 329 325 325 325 325 328 328 331 334 334 330 326 323 322 319
325 331 328 328 325 324 323 323 322 322 322 323 323 324 324 324 325 324 323 320 317 319 317 320 330 318 319 321 323 320 316 320 321 320 320 320 321 321 321 320 318 316 317
325 325 324 325 324 323 322 322 321 321 322 322 323 324 324 324 327 326 325 324 321 313 314 322 317 313 314 317 318 314 313 315 315 315 315 315 316 316 316 315 314 312 313
327 325 323 322 322 322 321 321 320 321 321 320 321 323 324 325 325 325 325 326 324 320 315 314 306 307 308 311 314 311 312 313 313 313 313 312 311 311 311 311 311 312 312
325 323 321 320 320 319 320 321 321 321 319 320 323 322 321 320 320 320 322 322 320 318 312 311 304 306 305 305 306 307 308 308 309 311 311 309 309 310 309 308 308 307 306
320 321 320 319 318 318 319 319 318 319 318 320 319 318 317 316 316 317 317 315 315 315 312 308 301 302 302 303 303 303 304 306 306 309 308 307 307 307 306 305 305 304 303
318 318 317 317 316 315 315 317 318 318 319 318 314 313 311 310 310 312 312 310 308 306 304 303 299 301 300 301 300 300 300 301 304 307 307 306 306 305 304 304 303 302 302
316 315 315 314 314 313 314 315 317 317 317 313 310 307 307 305 306 309 308 307 305 302 300 299 298 298 298 299 299 297 296 298 298 302 303 304 304 304 304 303 302 303 301
314 314 312 311 311 311 311 312 312 312 312 308 307 305 305 306 306 306 305 303 302 299 298 297 295 296 296 295 295 297 295 297 298 300 300 300 302 302 302 302 304 302 301
311 311 309 309 309 309 306 306 309 311 309 308 306 305 305 304 304 304 303 303 302 298 296 295 295 294 295 296 297 296 296 296 295 302 302 301 303 301 301 301 301 300 299
308 306 307 308 308 309 303 303 308 310 309 308 307 307 305 305 306 304 304 303 302 302 301 297 295 295 295 297 297 297 299 298 297 300 300 297 301 298 301 300 300 299 299
305 305 306 308 307 305 302 302 305 308 307 307 307 307 305 306 303 303 301 300 300 299 301 301 300 301 301 303 302 302 301 300 300 299 300 295 298 298 300 299 300 300 299
303 305 306 305 303 302 300 300 303 304 302 300 300 301 305 304 299 300 303 301 301 300 300 300 298 298 297 299 301 302 298 298 295 296 298 296 297 297 299 299 300 301 300
303 302 300 301 300 298 297 297 300 300 298 299 300 300 298 299 297 299 304 302 300 301 302 301 299 300 303 303 303 301 299 295 294 294 297 295 296 296 295 298 299 299 298
Wind_Speed
4 4 3 0 2 3 1 2 3 4 5 7 8 8 6 7 9 7 5 9 15 16 18 19 20 21 22 23 24 25 25 25 25 25 25 24 23 23 22 21 20 18 17
4 5 2 4 4 4 4 2 4 4 5 6 6 7 7 7 9 8 8 9 12 16 19 21 22 23 23 25 25 26 26 26 26 26 26 25 25 24 24 23 21 20 19
6 6 6 2 4 4 6 4 3 4 5 6 7 9 9 9 7 7 9 8 8 12 18 20 22 24 26 26 26 26 27 26 27 27 26 26 25 25 25 24 23 21 20
7 2 1 6 5 5 4 3 3 5 5 6 6 7 8 8 9 10 9 8 8 8 8 18 23 26 26 25 26 27 27 27 27 27 27 27 27 26 25 25 23 22 21
8 6 5 5 6 3 3 4 4 4 5 5 7 7 5 5 9 11 13 13 12 9 7 14 17 23 26 25 26 28 29 29 30 29 29 28 28 28 27 26 25 23 20
8 6 3 5 0 3 4 4 4 4 5 6 8 10 9 9 8 8 10 11 12 14 10 12 11 10 18 23 26 27 26 29 29 30 29 29 29 29 28 28 26 24 22
6 3 5 5 5 4 5 5 4 6 6 4 6 8 9 8 11 7 8 10 11 12 12 13 11 8 7 16 20 17 18 23 23 27 27 29 30 30 30 29 28 25 24
4 4 4 3 5 4 5 5 5 6 6 6 8 10 10 11 9 8 8 9 12 11 11 7 9 8 7 4 9 18 21 24 20 24 35 30 30 30 31 29 27 25 25
4 3 3 2 2 3 4 5 6 7 7 7 8 6 10 11 12 9 9 9 9 10 12 11 8 8 8 5 7 9 12 15 25 32 34 30 29 32 32 29 27 27 26
2 1 2 3 3 3 4 4 6 7 7 9 8 8 8 12 12 15 8 8 9 9 11 9 12 6 5 3 3 4 13 23 26 22 23 26 25 35 35 32 29 28 26
5 0 1 4 4 3 5 6 7 6 7 9 9 10 10 10 10 11 15 10 8 6 8 12 14 11 10 3 3 12 13 9 13 19 26 27 25 33 32 30 27 27 25
3 4 6 5 4 4 5 6 7 8 8 9 10 10 10 10 10 9 13 12 13 8 9 10 12 5 8 10 18 17 14 14 16 10 14 21 18 20 25 22 16 11 8
3 5 5 5 4 5 6 7 7 8 9 9 10 9 9 10 10 10 10 12 10 9 9 8 10 7 8 7 5 8 19 13 13 10 6 2 6 10 14 15 12 12 13
5 4 4 4 6 7 8 8 8 8 10 9 11 11 10 10 10 10 6 7 11 10 10 12 7 7 5 5 8 16 11 14 15 15 21 24 26 26 23 19 14 9 10
5 6 7 7 8 9 9 9 8 9 10 10 11 11 10 10 8 7 6 5 4 12 12 8 4 8 6 6 10 8 9 19 24 21 24 25 25 22 21 20 16 6 7
6 6 7 8 9 9 9 10 9 9 9 9 10 13 10 7 6 6 8 5 3 8 9 5 4 5 7 6 10 8 10 15 19 20 21 21 21 19 17 15 12 9 12
5 7 7 9 11 10 10 9 10 10 9 12 11 9 9 9 7 7 6 5 3 2 5 1 4 5 5 6 7 8 9 8 9 19 19 20 21 20 19 18 15 13 11
4 6 8 9 10 12 11 9 11 8 11 10 6 8 7 7 8 6 4 4 4 3 2 3 3 5 6 7 7 9 8 8 8 16 16 15 15 16 15 14 12 11 9
9 7 9 6 9 11 13 10 10 10 9 4 5 6 8 8 7 5 5 4 5 5 5 3 2 3 5 3 7 8 7 7 7 14 14 14 13 12 10 9 8 5 4
9 7 7 5 7 10 11 11 8 8 9 4 6 7 6 7 8 8 5 6 6 5 5 5 5 4 4 5 5 4 5 4 4 4 7 6 5 6 6 5 2 4 3
8 7 9 8 9 9 8 7 7 8 3 6 6 6 7 10 17 17 7 7 7 6 5 6 6 5 4 4 3 3 3 2 3 2 2 0 2 2 2 1 5 5 4
6 7 10 11 9 6 5 8 9 4 5 5 6 6 6 12 15 19 18 17 9 7 8 6 5 6 5 2 2 2 1 1 1 1 3 3 3 3 3 3 3 3 5
7 9 11 10 7 5 6 7 4 3 4 3 2 4 5 6 9 8 11 13 15 15 11 7 7 3 2 2 2 3 1 5 4 4 4 3 2 3 5 4 4 5 5
9 7 8 5 1 1 4 4 4 4 4 3 2 6 6 7 5 10 10 11 11 9 6 5 4 2 2 4 3 3 1 3 3 4 6 2 3 2 3 3 3 1 3
5 5 2 2 3 2 3 5 6 6 8 9 12 13 9 7 8 4 6 8 7 7 8 9 7 5 5 7 5 4 7 3 3 4 7 3 3 3 2 2 2 3 1
3 4 5 5 8 5 9 11 8 6 8 7 10 10 13 9 14 14 9 6 4 4 4 3 0 1 1 6 10 8 6 7 5 4 6 4 4 3 2 1 2 3 3
Wind_Direction
121 85 63 111 178 177 144 278 288 302 306 295 284 270 271 288 301 300 294 205 201 209 205 203 204 208 212 215 218 219 218 216 216 215 214 213 214 214 214 214 217 221 227
124 127 151 232 219 183 175 202 241 240 253 261 278 279 261 256 258 260 271 283 224 221 218 216 214 214 217 220 221 222 222 220 218 217 217 216 214 214 215 215 216 219 225
180 177 186 209 47 37 0 314 307 340 335 325 326 328 321 310 301 269 247 249 264 234 230 236 229 225 224 223 224 226 225 225 222 221 219 219 218 215 215 215 215 219 224
155 118 135 63 36 16 326 328 348 360 350 338 314 306 298 292 294 293 279 261 250 250 245 233 250 241 233 232 227 227 227 225 226 225 223 219 218 217 216 216 215 217 224
69 30 53 72 34 317 343 18 11 2 320 310 301 289 293 305 306 297 297 295 281 244 246 261 252 246 250 239 233 228 226 222 220 222 223 222 219 216 215 214 214 216 207
64 30 35 89 38 343 357 13 341 310 285 293 308 306 287 276 271 273 279 270 274 279 260 250 260 255 231 240 248 246 242 230 221 219 223 221 221 217 214 212 211 211 202
84 74 31 34 19 7 4 343 320 312 294 308 299 304 297 292 290 274 284 283 285 271 286 275 253 252 248 239 243 246 259 275 270 245 226 223 221 220 215 209 208 200 200
96 87 51 8 37 357 330 309 336 328 318 313 303 296 308 302 281 288 317 310 308 300 296 323 302 283 260 212 224 232 243 235 257 264 256 232 223 221 216 209 202 197 199
97 94 62 53 12 338 328 338 314 300 308 316 305 303 308 290 310 305 290 297 301 310 297 293 284 258 245 247 218 243 252 222 235 246 255 247 230 220 216 203 200 198 195
84 133 96 62 44 6 311 314 334 317 305 297 295 282 277 286 293 308 296 292 273 282 299 309 301 281 253 158 253 261 206 214 230 254 265 256 257 260 201 196 197 194 190
219 170 46 53 28 349 322 296 293 316 312 302 298 299 299 295 291 298 294 307 301 306 320 307 311 309 338 21 21 25 353 303 254 253 257 264 243 249 190 191 205 191 183
30 27 43 38 355 300 306 315 294 293 293 294 291 285 281 281 282 296 294 300 305 297 298 302 302 19 33 26 339 354 354 341 306 280 264 272 243 222 196 196 182 174 151
354 7 31 358 313 314 307 302 300 293 285 282 287 288 281 274 281 290 299 298 313 318 305 299 305 32 14 2 3 28 27 16 347 317 355 21 99 105 103 110 131 135 124
321 337 316 325 321 314 310 304 298 296 290 285 288 282 280 276 275 276 301 319 308 304 306 308 308 42 30 6 19 50 40 37 68 70 84 88 93 98 103 103 109 121 131
318 333 321 316 318 305 304 301 294 294 289 291 290 281 276 280 293 316 299 299 307 307 306 319 338 30 31 29 58 65 61 59 65 69 75 82 86 94 101 106 114 118 129
285 305 316 312 300 301 296 288 290 291 304 302 299 296 307 309 314 300 308 328 313 286 286 43 26 7 14 30 53 50 59 61 64 64 68 72 79 85 91 91 96 102 103
289 292 299 307 301 298 291 292 292 293 305 296 302 325 335 342 328 321 324 324 323 350 294 88 35 5 29 37 41 52 50 51 59 66 69 72 73 78 80 79 76 72 63
299 296 297 289 303 303 296 307 301 311 306 312 343 346 342 336 324 321 310 308 311 332 313 339 38 28 49 43 49 56 51 52 56 66 74 77 82 79 76 79 81 72 61
296 287 275 295 303 320 314 316 314 313 314 358 29 13 348 337 329 327 326 12 16 39 21 22 87 55 49 39 58 47 40 39 36 52 57 74 81 86 89 85 77 72 60
307 330 300 313 309 298 300 309 316 329 321 70 61 47 18 14 350 337 43 23 33 46 41 60 62 65 52 38 43 48 47 31 33 32 57 65 76 80 88 86 92 111 46
297 316 313 312 311 309 305 326 311 296 170 102 101 87 58 54 52 47 41 40 48 56 56 61 60 62 49 42 36 358 40 4 15 14 6 10 135 128 131 92 89 64 16
297 291 287 289 290 286 338 311 291 236 119 132 140 146 121 80 68 71 66 62 70 81 75 72 65 69 56 30 3 355 324 292 20 246 332 79 152 139 131 116 97 54 20
301 293 287 283 278 301 327 300 281 110 130 153 180 211 120 122 106 94 82 85 79 75 79 94 93 68 30 285 327 309 358 50 49 26 37 37 48 98 140 135 118 68 27
281 277 271 283 39 327 286 246 133 100 95 57 22 86 85 63 37 95 87 72 58 48 49 83 87 82 36 0 351 352 347 98 58 37 10 44 339 70 122 140 140 83 30
323 296 12 89 126 76 77 91 88 75 82 70 58 44 48 29 7 73 110 99 95 87 55 55 70 61 28 6 3 359 25 103 98 45 22 343 356 327 153 135 143 63 314
3 61 75 77 93 74 55 54 55 76 81 79 72 59 39 52 52 44 47 74 77 111 124 145 204 230 66 46 37 43 40 50 27 20 357 353 352 2 10 97 54 55 360